Regional Weather Roundup
Issued by NWS

Home | Current Version | Previous Version | Graphics & Text | Print | Product List | Glossary On
Versions: 1 2 3 4 5 6 7 8 9 10 11 12 13 14 15 16 17 18 19 20 21 22 23 24 25 26 27 28 29 30 31 32 33 34 35 36 37 38 39 40 41 42 43 44 45 46 47 48 49 50
232
ASUS43 KDTX 230910
RWRMI
MICHIGAN HOURLY REGIONAL WEATHER ROUNDUP
NATIONAL WEATHER SERVICE DETROIT/PONTIAC MI
500 AM EDT SUN APR 23 2017

NOTE: "FAIR" INDICATES FEW OR NO CLOUDS BELOW 12,000 FEET WITH NO
SIGNIFICANT WEATHER AND/OR OBSTRUCTION TO VISIBILITY.

MIZ047>049-052>055-059>063-066>070-074>076-081>083-231000-
SOUTHEAST LOWER MICHIGAN

CITY           SKY/WX    TMP DP  RH WIND       PRES   REMARKS
ADRIAN         CLEAR     36  34  92 CALM      30.11S
ALMA           CLEAR     37  35  92 CALM      30.10S
ANN ARBOR      CLEAR     31  31 100 CALM      30.11R
BAD AXE        CLEAR     33  28  83 CALM      30.09F
CARO           CLEAR     32  32  99 CALM      30.09S
DETROIT CITY   CLEAR     38  31  76 N3        30.11S
DETROIT        CLEAR     38  33  82 NW5       30.12S WCI  34
FLINT          CLEAR     34  32  92 CALM      30.11R
GROSSE ILE     CLEAR     34  31  88 CALM      30.09F
HILLSDALE      CLEAR     36  34  93 CALM      30.10R FOG
HOWELL         CLEAR     36  32  86 CALM      30.10S

CITY           SKY/WX    TMP DP  RH WIND       PRES   REMARKS
JACKSON        CLEAR     35  33  92 CALM      30.11R
LAMBERTVILLE   CLEAR     34  33  96 CALM      30.10S
LANSING        CLEAR     38  34  85 CALM      30.11S
LAPEER         FAIR      33  33  99 CALM      30.10R
MASON          CLEAR     37  35  95 CALM      30.10S
MONROE         CLEAR     34  33  96 CALM      30.09F
MT. CLEMENS    PTCLDY    34  32  92 CALM      30.09R
PONTIAC        CLEAR     36  32  85 CALM      30.09S
PORT HOPE        N/A     40  24  53 SW8       30.06F WCI  34
PORT HURON     FOG       30  28  93 CALM      30.10S VSB 1
TRI CITIES     CLEAR     42  31  64 SW6       30.09S
MIDLAND        FAIR      36  34  93 CALM      30.08F
TROY           CLEAR     39  33  77 W6        30.12R WCI  35
SAGINAW HB     CLEAR     39  30  70 SW5       30.09S
$$
MIZ043>046-050>051-056>058-064>065-071>073-077>080-231000-
SOUTHWEST LOWER MICHIGAN

CITY           SKY/WX    TMP DP  RH WIND       PRES   REMARKS
BATTLE CREEK   CLEAR     37  33  85 CALM      30.11S
BENTON HARBOR  CLEAR     32  27  81 CALM      30.12S
BIG RAPIDS     CLEAR     33  30  88 CALM      30.09S
COLDWATER      CLEAR     35  33  90 CALM      30.11S
FREMONT        FAIR      33  31  92 CALM      30.11R
HOLLAND        CLEAR     37  33  85 CALM      30.12R
GRAND RAPIDS   CLEAR     38  35  89 CALM      30.11R
IONIA          FAIR      38  33  80 SW5       30.10R WCI  35
KALAMAZOO      CLEAR     37  30  75 S3        30.11S
LUDINGTON      CLEAR     33  30  90 CALM      30.08F
MARSHALL       CLEAR     34  33  95 CALM      30.11R
MOUNT PLEASANT CLEAR     38  33  82 CALM      30.08S
MUSKEGON       CLEAR     34  30  85 CALM      30.12R
SOUTH HAVEN    CLEAR     32  28  86 CALM      30.12R
$$
MIZ016>042-231000-
NORTHERN LOWER MICHIGAN

CITY           SKY/WX    TMP DP  RH WIND       PRES   REMARKS
ALPENA         CLEAR     40  30  67 SW6       30.03F
BEAVER ISLAND  CLOUDY    39  35  84 SW9       30.01S WCI  33
BELLAIRE       CLEAR     32  31  94 CALM      30.04F
CADILLAC       CLEAR     36  23  59 CALM      30.07S
CHARLEVOIX     CLOUDY    47  28  48 SW5       30.05R
FRANKFORT      CLOUDY    48  25  41 SW3       30.06F
GAYLORD        CLEAR     44  23  43 SW8       30.03F
GRAYLING       CLEAR     26  23  91 CALM      30.05F
HARBOR SPRINGS CLEAR     45  28  50 W5        30.01S
HOUGHTON LAKE  CLEAR     45  31  58 W6        30.07S
MANISTEE       CLEAR     29  27  92 E5        30.07F WCI  24
OSCODA         CLEAR     35  30  84 SW7       30.05F WCI  29
PELLSTON       CLEAR     50  26  39 W8        30.00F
ROGERS CITY    CLEAR     45  24  44 SW9       30.00F
TRAVERSE CITY  CLEAR     47  25  42 SW7       30.03F
$$
MIZ007>008-015-231000-
EASTERN UPPER MICHIGAN

CITY           SKY/WX    TMP DP  RH WIND       PRES   REMARKS
KINROSS        MOCLDY    39  29  67 W6        29.98F WCI  35
MACKINAC ISLAN CLOUDY    43  32  65 SW12G22   30.00R
NEWBERRY       CLOUDY    40  34  81 NW8       30.00R WCI  34
S. S. MARIE    CLOUDY    41  28  60 SW5       29.97F
MUNISING         N/A     39  35  86 NW16      30.05R WCI  30
$$
MIZ004>006-011>014-085-231000-
CENTRAL UPPER MICHIGAN

CITY           SKY/WX    TMP DP  RH WIND       PRES   REMARKS
MANISTIQUE     PTCLDY    38  35  89 NW7       30.01R WCI  33
ESCANABA       CLOUDY    44  36  73 N3        30.03R
MENOMINEE      CLOUDY    48  32  53 W5        30.02F
SAWYER-GWINN   CLOUDY    37  33  86 N15       30.05R WCI  27
$$
MIZ001>003-009>011-084-231000-
WESTERN UPPER MICHIGAN

CITY           SKY/WX    TMP DP  RH WIND       PRES   REMARKS
IRON MOUNTAIN  CLOUDY    40  31  70 NW7       30.02R
HOUGHTON       LGT SNOW  33  30  88 N12       30.09R FOG     WCI  24
COPPER HARBOR    N/A     35  30  82 NE17G26   30.12R WCI  25
IRONWOOD       LGT RAIN  41  38  89 N13G22    30.11R
$$

ABBREVIATIONS USED IN REMARKS
   TC - TEMPERATURE IN CELSIUS
  WCI - WIND CHILL INDEX
   HX - HEAT INDEX
  VSB - VISIBILITY





USA.gov is the U.S. government's official web portal to all federal, state and local government web resources and services.